Current weather by "City, St" or "zip code"  
 

Current Conditions: MCAS New River, NC

Fair


66.0 F

Last Updated on Oct 24 2020, 9:56 pm EDT
Humidity: 93%
Wind Speed: N 0.0 mph
Barometer 29.98 in
Dewpoint: 64.0 F
Visibility: NULL mi
Precip: --
Heat Index: NA
Wind Chill: NA
Current conditions at:

MCAS New River, NC (KNCA)

Lat: 34.70627 Lon: 77.44066

Local Radar Image active severe weather and emergency alerts image image weather storm and storm spotter reports image weather observation monitoring service image
Local
Radar
Active
Alerts
Storm Reports Obs
Monitoring

Sign-up For Email & Text Message Weather Alert Notification Services



Advertise Here

Observation History for MCAS New River, NC


Time Wind
(mph)
Vis
(mi)
Weather Precip (in) Temperature (F) Relative
Humidity
Wind
Chill
(F)
Heat
Index
(F)
Pressure
Air Dwpt altimeter
(in)
sea level
(mb)
Rmks
9:56 pm EDT N 0.0 NULL Fair -- 66.0 64.0 93% NA NA 29.98 1015.5
8:56 pm EDT N 0.0 NULL Fair -- 68.0 64.0 87% NA NA 29.99 1015.6
7:56 pm EDT N 0.0 NULL Fair -- 69.0 64.9 87% NA NA 29.98 1015.4
6:56 pm EDT S 3.5 NULL Fair -- 72.0 64.0 76% NA NA 29.96 1014.6
5:56 pm EDT S 4.6 NULL Fair -- 75.0 64.0 69% NA NA 29.94 1014.2
4:56 pm EDT SE 9.2 NULL Fair -- 78.0 63.0 60% NA NA 29.94 1014.1
3:56 pm EDT S 9.2 NULL Fair -- 80.0 64.0 58% NA 82 29.94 1014.1
2:56 pm EDT SE 8.1 NULL A Few Clouds -- 80.0 63.0 56% NA 81 29.95 1014.3
1:56 pm EDT SE 8.1 NULL A Few Clouds -- 82.0 62.1 51% NA 83 29.97 1015.0
12:56 pm EDT N 0.0 NULL A Few Clouds -- 80.0 62.1 54% NA 81 30.00 1016.1
11:56 am EDT N 0.0 NULL Fair -- 79.0 63.0 58% NA NA 30.02 1016.7
10:56 am EDT N 0.0 10.00 Fair -- 76.0 64.0 67% NA NA 30.04 1017.4
9:56 am EDT N 0.0 10.00 Fair -- 71.0 64.0 79% NA NA 30.05 1017.9
8:56 am EDT N 0.0 10.00 Fair -- 65.0 63.0 93% NA NA 30.05 1017.8
7:56 am EDT N 0.0 10.00 Fair -- 60.0 59.0 96% NA NA 30.04 1017.4
6:56 am EDT N 0.0 4.00 Fog/Mist -- 60.0 57.9 93% NA NA 30.04 1017.4
5:56 am EDT N 0.0 1.50 Fog/Mist -- 60.0 59.0 96% NA NA 30.03 1017.3
4:56 am EDT N 0.0 10.00 Fair -- 62.0 59.0 90% NA NA 30.03 1017.0
3:56 am EDT W 3.5 10.00 Fair -- 62.0 60.1 93% NA NA 30.02 1016.7
2:56 am EDT NW 3.5 6.00 Fog/Mist -- 62.0 60.1 93% NA NA 30.02 1016.9
1:56 am EDT W 3.5 10.00 Fair -- 63.0 61.0 93% NA NA 30.03 1017.0
12:56 am EDT W 3.5 8.00 A Few Clouds -- 64.0 62.1 93% NA NA 30.04 1017.5
11:56 pm EDT NW 3.5 10.00 A Few Clouds -- 66.0 64.0 93% NA NA 30.05 1017.9
10:56 pm EDT SE 3.5 10.00 A Few Clouds -- 69.0 64.9 87% NA NA 30.05 1017.9

Regional Weather Observation


MCAS New River, NC (KNCA)

Fair
66.0 F

Duplin County Airport, NC (KDPL)

Fair
66.0 F

Bogue Field Marine Corps Auxiliary Field, NC (KNJM)

Fair
68.0 F

New Bern, Craven County Regional Airport, NC (KEWN)

Fair
65.0 F

Kinston, Kinston Regional Jetport at Stallings Field, NC (KISO)

Fair
69.0 F

Seymour-Johnson Air Force Base, NC (KGSB)

Fair
70.0 F